Temp
-8 -8 -8 -8 -8 -8 -8 -8 -8 -7 -7 -7 -7 -7 -7 -6 -6 -6 -6 -6 -6 -5 -6 -6 -6 -6 -5 -5 -5 -5 -5 -5 -5 -4 -5 -5 -5 -5 -6 -5 -6 -6 -6
-8 -8 -8 -9 -8 -7 -8 -8 -8 -7 -7 -7 -7 -7 -7 -7 -7 -7 -6 -6 -6 -6 -6 -6 -6 -6 -5 -5 -5 -5 -5 -5 -5 -5 -5 -5 -5 -5 -5 -5 -6 -6 -5
-9 -9 -8 -9 -8 -8 -8 -8 -8 -7 -7 -7 -7 -7 -7 -7 -7 -7 -7 -7 -7 -7 -7 -7 -7 -6 -6 -6 -5 -5 -5 -5 -6 -6 -6 -5 -5 -5 -6 -6 -6 -6 -6
-10 -8 -9 -9 -8 -8 -8 -8 -9 -8 -8 -8 -8 -8 -8 -7 -7 -8 -7 -7 -7 -7 -7 -7 -7 -7 -7 -6 -6 -7 -7 -6 -6 -6 -6 -6 -6 -5 -5 -5 -6 -6 -6
-9 -8 -8 -7 -8 -8 -8 -9 -9 -8 -8 -8 -8 -8 -7 -7 -7 -8 -8 -8 -8 -7 -7 -7 -8 -8 -7 -8 -7 -7 -7 -7 -7 -7 -7 -7 -7 -6 -6 -6 -6 -6 -6
-8 -9 -8 -7 -8 -8 -9 -9 -9 -9 -8 -8 -8 -8 -8 -8 -7 -7 -8 -8 -8 -9 -8 -7 -7 -8 -8 -8 -8 -8 -8 -8 -8 -8 -8 -7 -7 -7 -7 -7 -7 -7 -7
-8 -8 -8 -8 -9 -8 -8 -9 -10 -9 -8 -9 -8 -8 -8 -8 -8 -7 -8 -8 -8 -8 -8 -8 -9 -9 -9 -9 -8 -8 -8 -8 -8 -8 -8 -8 -7 -7 -7 -8 -8 -7 -7
-8 -8 -8 -8 -9 -8 -8 -8 -8 -8 -8 -8 -8 -8 -8 -8 -8 -8 -8 -8 -8 -8 -8 -8 -9 -9 -9 -9 -9 -9 -8 -8 -8 -8 -8 -8 -8 -8 -8 -8 -8 -8 -7
-8 -8 -8 -8 -9 -9 -9 -8 -9 -8 -8 -8 -7 -7 -8 -8 -8 -8 -9 -9 -9 -9 -9 -9 -9 -9 -9 -9 -9 -9 -9 -9 -9 -9 -9 -8 -8 -8 -8 -8 -8 -8 -8
-8 -9 -9 -9 -8 -8 -9 -9 -9 -8 -8 -8 -8 -9 -9 -9 -9 -9 -9 -9 -10 -9 -9 -10 -10 -10 -10 -10 -10 -10 -10 -10 -10 -10 -10 -10 -9 -9 -8 -8 -8 -8 -8
-8 -8 -9 -9 -9 -9 -9 -9 -9 -9 -9 -9 -9 -9 -9 -9 -10 -9 -9 -9 -10 -10 -10 -10 -10 -10 -10 -10 -10 -10 -10 -10 -10 -10 -10 -10 -10 -10 -9 -9 -8 -8 -8
-8 -8 -8 -9 -9 -9 -9 -9 -9 -9 -9 -9 -10 -10 -10 -10 -10 -10 -10 -10 -10 -10 -10 -10 -10 -10 -10 -11 -11 -11 -10 -10 -10 -10 -10 -10 -11 -11 -11 -11 -10 -9 -9
-8 -8 -8 -9 -10 -9 -9 -9 -10 -10 -10 -10 -10 -10 -10 -10 -10 -10 -10 -11 -11 -11 -11 -11 -11 -11 -11 -11 -11 -11 -11 -12 -12 -12 -12 -12 -12 -12 -12 -12 -12 -11 -11
-8 -8 -9 -9 -9 -10 -10 -10 -10 -10 -10 -10 -11 -11 -11 -11 -11 -11 -11 -11 -11 -11 -12 -12 -12 -12 -12 -12 -13 -13 -13 -13 -13 -13 -13 -13 -13 -13 -12 -12 -11 -12 -12
-8 -9 -9 -9 -10 -10 -11 -11 -11 -11 -11 -11 -11 -11 -11 -12 -12 -11 -11 -11 -12 -12 -12 -12 -12 -13 -13 -14 -14 -14 -14 -14 -14 -14 -14 -13 -13 -13 -13 -13 -13 -13 -13
-9 -9 -10 -10 -10 -11 -11 -11 -11 -11 -12 -12 -12 -12 -12 -12 -12 -12 -13 -13 -13 -13 -13 -13 -14 -14 -14 -15 -15 -15 -15 -15 -15 -15 -15 -14 -14 -14 -14 -14 -14 -14 -14
-10 -10 -10 -10 -10 -10 -11 -12 -12 -11 -11 -12 -12 -12 -13 -13 -12 -13 -13 -13 -14 -14 -15 -15 -15 -15 -15 -15 -15 -15 -15 -15 -15 -15 -15 -15 -15 -15 -15 -15 -14 -14 -14
-10 -10 -10 -10 -11 -11 -12 -12 -11 -12 -12 -13 -13 -13 -13 -13 -13 -13 -14 -15 -15 -15 -16 -16 -16 -16 -16 -16 -16 -16 -16 -16 -16 -16 -16 -16 -15 -15 -15 -15 -15 -14 -14
-11 -11 -11 -11 -11 -11 -11 -12 -12 -12 -13 -13 -13 -13 -13 -13 -14 -14 -15 -15 -16 -16 -16 -16 -17 -17 -16 -16 -16 -16 -16 -16 -16 -16 -16 -17 -16 -16 -15 -15 -15 -15 -14
-11 -11 -11 -11 -11 -11 -12 -12 -12 -12 -13 -13 -13 -14 -14 -15 -15 -16 -16 -16 -17 -17 -17 -17 -17 -17 -17 -17 -17 -17 -17 -17 -17 -17 -18 -18 -17 -16 -15 -15 -15 -14 -14
-11 -11 -11 -11 -12 -12 -12 -12 -12 -13 -13 -14 -14 -14 -15 -16 -16 -17 -17 -17 -17 -17 -17 -17 -17 -17 -17 -17 -17 -17 -17 -17 -17 -18 -18 -18 -18 -17 -16 -15 -15 -15 -14
-11 -11 -11 -12 -12 -12 -12 -13 -13 -14 -14 -14 -15 -16 -16 -17 -17 -17 -18 -18 -18 -18 -18 -18 -18 -17 -17 -17 -17 -17 -17 -17 -18 -18 -18 -18 -17 -18 -17 -16 -15 -15 -15
-11 -12 -12 -12 -12 -12 -12 -13 -13 -14 -15 -16 -16 -17 -17 -17 -18 -18 -18 -18 -18 -18 -18 -18 -18 -18 -18 -18 -18 -18 -18 -18 -18 -18 -18 -18 -17 -17 -17 -17 -16 -16 -15
-12 -12 -12 -12 -12 -13 -13 -14 -14 -15 -16 -16 -17 -18 -17 -18 -18 -18 -18 -18 -18 -18 -18 -18 -18 -18 -18 -18 -18 -18 -18 -18 -18 -18 -18 -17 -17 -17 -17 -16 -16 -16 -15
-12 -12 -12 -13 -13 -13 -14 -14 -15 -16 -16 -17 -17 -17 -18 -18 -18 -17 -18 -18 -18 -18 -18 -18 -18 -18 -19 -19 -18 -18 -18 -18 -18 -18 -18 -17 -17 -17 -16 -16 -16 -16 -15
-12 -13 -13 -13 -13 -14 -14 -15 -15 -16 -16 -17 -17 -17 -17 -17 -18 -18 -18 -18 -18 -18 -19 -19 -19 -19 -19 -19 -18 -18 -18 -18 -18 -18 -17 -17 -17 -16 -17 -16 -16 -16 -16
Height
5886 5885 5885 5884 5884 5882 5881 5880 5878 5876 5875 5873 5871 5871 5868 5867 5867 5867 5866 5866 5864 5862 5861 5859 5858 5857 5856 5854 5852 5850 5848 5846 5843 5842 5842 5840 5838 5837 5836 5835 5834 5833 5832
5881 5881 5881 5880 5880 5879 5878 5876 5874 5873 5872 5870 5869 5867 5867 5865 5863 5862 5860 5859 5857 5855 5853 5852 5851 5850 5849 5847 5845 5843 5841 5840 5838 5836 5835 5834 5832 5831 5829 5828 5827 5826 5825
5869 5873 5876 5875 5875 5874 5873 5873 5871 5868 5866 5864 5863 5863 5861 5860 5858 5856 5854 5853 5852 5850 5848 5846 5843 5841 5840 5839 5838 5836 5834 5833 5833 5831 5828 5826 5825 5825 5823 5822 5820 5819 5818
5871 5867 5864 5866 5868 5869 5870 5870 5867 5864 5862 5861 5859 5857 5855 5854 5852 5851 5849 5847 5846 5845 5843 5840 5838 5837 5835 5832 5831 5830 5828 5826 5824 5823 5822 5820 5817 5817 5815 5814 5813 5812 5810
5861 5846 5855 5854 5858 5863 5863 5864 5864 5862 5859 5857 5856 5853 5850 5846 5844 5843 5843 5840 5839 5840 5839 5836 5832 5830 5828 5825 5823 5821 5819 5817 5815 5813 5812 5810 5809 5808 5807 5806 5804 5802 5801
5855 5842 5844 5849 5854 5855 5854 5857 5859 5858 5855 5853 5851 5848 5846 5842 5839 5839 5837 5835 5833 5831 5830 5828 5826 5823 5820 5818 5816 5814 5812 5809 5807 5805 5802 5800 5797 5795 5795 5795 5794 5794 5793
5854 5850 5848 5853 5852 5850 5850 5851 5852 5851 5849 5847 5844 5843 5840 5837 5834 5832 5830 5827 5826 5824 5822 5820 5818 5815 5812 5810 5807 5805 5803 5801 5799 5796 5793 5790 5788 5784 5782 5782 5781 5781 5781
5854 5851 5851 5852 5852 5852 5850 5851 5849 5847 5844 5842 5840 5838 5835 5832 5830 5828 5825 5822 5819 5816 5813 5811 5808 5806 5804 5801 5798 5794 5792 5790 5788 5785 5783 5780 5777 5775 5772 5769 5769 5768 5768
5849 5847 5850 5851 5849 5849 5848 5845 5843 5841 5839 5836 5834 5831 5827 5825 5822 5820 5818 5815 5812 5809 5806 5804 5801 5798 5796 5793 5789 5785 5781 5777 5773 5771 5769 5767 5764 5762 5760 5757 5755 5755 5754
5845 5842 5844 5845 5846 5844 5841 5839 5837 5834 5833 5830 5828 5825 5821 5818 5816 5814 5811 5808 5806 5803 5800 5796 5792 5789 5786 5782 5778 5774 5771 5768 5764 5760 5754 5748 5747 5745 5742 5740 5739 5738 5736
5843 5841 5840 5838 5837 5836 5834 5832 5830 5827 5826 5823 5819 5817 5816 5814 5811 5807 5804 5800 5796 5791 5787 5784 5780 5776 5772 5769 5766 5762 5758 5754 5750 5746 5742 5737 5732 5727 5723 5720 5717 5715 5714
5836 5834 5833 5832 5830 5828 5827 5824 5820 5817 5816 5815 5811 5807 5804 5801 5797 5793 5788 5785 5782 5777 5774 5771 5766 5762 5758 5754 5750 5746 5742 5737 5732 5728 5724 5720 5716 5711 5708 5703 5700 5697 5694
5830 5829 5826 5824 5822 5820 5817 5813 5811 5811 5809 5805 5801 5797 5795 5793 5790 5787 5782 5778 5774 5769 5764 5759 5754 5749 5745 5741 5736 5732 5727 5722 5717 5712 5708 5703 5698 5693 5688 5685 5679 5675 5672
5825 5824 5821 5821 5817 5814 5811 5808 5807 5803 5800 5796 5794 5791 5786 5783 5779 5776 5773 5769 5765 5759 5754 5749 5744 5739 5734 5728 5723 5717 5713 5708 5704 5699 5693 5687 5682 5675 5669 5664 5659 5653 5647
5818 5816 5815 5811 5808 5806 5803 5802 5800 5795 5792 5788 5784 5779 5775 5771 5768 5764 5760 5756 5750 5745 5739 5735 5731 5726 5720 5716 5711 5706 5701 5696 5691 5685 5679 5673 5665 5658 5652 5646 5640 5635 5632
5810 5808 5806 5805 5803 5800 5797 5792 5789 5786 5783 5778 5773 5769 5766 5762 5756 5751 5745 5741 5736 5731 5726 5723 5718 5713 5708 5705 5701 5696 5690 5684 5678 5672 5665 5658 5651 5643 5638 5632 5628 5624 5620
5802 5802 5801 5799 5795 5792 5788 5784 5781 5778 5772 5768 5763 5758 5753 5749 5743 5737 5732 5727 5723 5719 5715 5710 5706 5702 5698 5694 5689 5683 5678 5671 5665 5658 5652 5645 5638 5631 5625 5622 5619 5615 5611
5796 5795 5793 5789 5786 5782 5778 5775 5771 5765 5761 5757 5752 5746 5741 5736 5731 5728 5723 5718 5714 5709 5705 5701 5697 5692 5687 5683 5677 5672 5666 5660 5654 5647 5641 5633 5626 5620 5617 5613 5610 5606 5604
5789 5786 5782 5778 5776 5773 5769 5765 5760 5756 5751 5746 5741 5736 5732 5727 5722 5718 5714 5709 5704 5700 5696 5692 5687 5683 5678 5673 5667 5662 5655 5649 5643 5637 5630 5622 5616 5611 5608 5604 5602 5599 5594
5778 5777 5775 5771 5767 5764 5761 5756 5752 5746 5741 5737 5732 5728 5723 5718 5713 5708 5704 5700 5696 5693 5688 5684 5679 5674 5669 5663 5657 5650 5644 5637 5633 5628 5622 5614 5608 5603 5600 5597 5593 5590 5586
5771 5770 5768 5765 5761 5757 5752 5748 5744 5739 5733 5728 5724 5719 5713 5708 5703 5699 5696 5693 5690 5686 5681 5676 5671 5665 5659 5653 5646 5639 5633 5627 5623 5619 5614 5607 5601 5596 5592 5589 5585 5581 5577
5765 5764 5760 5756 5752 5748 5745 5740 5736 5731 5725 5720 5714 5708 5705 5701 5697 5693 5690 5687 5683 5678 5674 5668 5662 5657 5650 5643 5636 5630 5624 5618 5615 5611 5606 5601 5596 5590 5585 5581 5577 5572 5567
5758 5755 5752 5748 5746 5741 5737 5733 5728 5723 5717 5711 5707 5702 5698 5694 5690 5686 5683 5679 5675 5670 5665 5660 5654 5648 5640 5633 5626 5621 5616 5612 5608 5605 5600 5595 5590 5585 5580 5575 5571 5566 5561
5751 5748 5744 5741 5738 5733 5729 5724 5720 5716 5711 5706 5701 5696 5691 5687 5683 5680 5676 5672 5667 5663 5658 5652 5646 5639 5632 5625 5618 5613 5609 5606 5602 5598 5594 5589 5584 5579 5574 5569 5564 5559 5554
5744 5740 5737 5734 5730 5726 5722 5717 5713 5709 5705 5700 5695 5691 5686 5682 5678 5674 5670 5666 5662 5656 5650 5645 5639 5631 5624 5617 5612 5607 5603 5600 5597 5592 5587 5583 5578 5574 5568 5563 5558 5553 5546
5737 5734 5731 5728 5724 5719 5715 5711 5707 5704 5700 5696 5691 5688 5683 5679 5674 5670 5666 5661 5655 5649 5643 5637 5631 5623 5617 5611 5606 5602 5599 5595 5591 5587 5582 5578 5573 5568 5563 5558 5552 5547 5541
Wind_Speed
12 12 9 8 9 10 11 13 14 15 16 13 13 17 18 19 19 19 18 17 18 19 17 16 18 20 21 23 23 24 26 27 25 24 24 24 23 23 22 22 21 17 18
18 16 13 11 12 12 12 14 16 19 18 17 16 17 20 23 23 23 23 23 21 19 19 20 22 24 25 26 27 27 28 27 25 24 24 23 23 23 25 26 25 26 26
23 20 20 16 17 16 13 14 18 18 20 21 21 21 22 24 25 25 25 25 25 23 24 25 26 27 28 29 30 29 27 26 25 26 28 29 28 26 26 26 27 27 28
35 28 26 25 23 21 16 15 18 17 14 17 19 20 21 26 29 29 29 29 29 29 28 29 29 30 29 28 28 27 28 27 27 27 28 29 32 32 31 30 30 29 30
40 48 37 36 23 20 19 17 16 14 13 14 15 17 17 17 18 25 29 27 26 30 32 28 26 27 28 28 27 28 28 29 28 28 30 31 32 34 33 34 35 35 35
17 22 18 28 17 17 23 23 16 16 17 19 20 23 24 24 23 23 22 25 28 29 31 33 34 33 31 30 30 30 30 31 33 34 35 35 37 37 37 36 36 35 34
8 10 10 9 7 9 13 23 20 18 18 18 21 22 22 23 22 23 24 24 25 25 26 27 28 29 31 33 33 33 34 33 34 36 37 38 39 40 40 39 38 37 35
7 10 7 9 9 10 6 10 15 18 19 21 24 24 23 23 24 24 24 25 26 27 28 30 31 32 34 36 38 38 39 39 39 39 38 38 38 39 41 41 40 41 40
6 5 6 8 11 12 12 14 16 18 20 23 25 25 25 26 26 26 28 30 30 31 31 32 33 34 35 35 36 38 41 43 45 43 42 43 43 42 42 43 45 47 46
10 6 9 12 12 13 14 16 18 21 25 26 29 28 27 27 29 31 33 34 35 37 37 37 37 38 39 39 40 41 42 44 45 46 49 52 50 50 51 51 51 51 51
13 13 13 13 15 15 17 19 21 24 28 30 30 31 33 34 35 36 37 39 40 39 39 40 40 41 42 44 45 46 47 47 48 49 50 51 52 53 55 56 57 57 57
18 20 18 18 17 21 21 22 24 26 28 30 29 29 32 34 35 37 39 40 41 40 42 44 45 47 49 50 51 51 51 51 51 52 53 54 54 54 54 55 56 59 62
21 21 20 21 22 22 25 26 27 29 31 30 31 33 36 39 43 45 44 44 45 46 46 47 49 51 54 54 53 52 52 51 51 51 52 54 56 56 56 56 56 56 57
22 21 22 23 25 26 27 27 29 31 31 32 35 39 40 42 44 44 46 47 48 50 50 50 49 51 52 49 47 45 46 47 47 49 52 52 54 56 57 58 60 58 51
26 24 21 24 25 26 27 30 32 32 34 36 39 41 42 43 45 46 48 49 49 50 50 53 52 46 42 41 41 42 43 46 46 47 49 51 54 56 58 54 47 41 40
30 26 29 30 30 32 32 33 34 35 36 39 41 42 45 46 46 48 48 51 51 49 47 44 43 41 38 38 39 40 41 42 45 46 47 50 51 52 42 36 33 32 29
28 28 29 31 32 35 35 35 37 39 41 42 45 44 45 45 49 47 46 44 43 42 40 37 35 35 38 39 38 39 40 43 47 47 47 50 47 41 32 30 28 29 29
30 28 32 34 35 36 35 38 41 41 42 43 45 47 48 47 46 44 43 40 37 34 33 34 35 37 37 38 38 41 44 45 46 46 45 48 40 32 28 25 25 28 29
30 34 37 35 36 37 39 41 43 43 43 44 48 45 43 41 38 37 33 32 30 30 32 35 36 37 37 38 39 41 43 44 45 44 42 45 37 26 25 25 24 24 24
34 34 36 36 36 38 41 41 42 44 42 41 40 39 38 36 36 33 32 31 31 33 35 35 34 34 36 39 42 45 45 44 41 38 37 40 33 25 24 25 26 29 29
30 32 35 37 39 38 39 39 38 37 37 37 37 38 38 35 33 30 30 30 30 31 31 30 35 36 39 42 41 39 38 38 33 31 32 35 34 28 26 28 29 32 32
32 35 34 34 34 33 33 33 34 34 36 39 39 36 33 32 30 28 28 29 28 28 29 32 34 38 40 41 40 38 36 30 29 28 29 32 32 29 25 26 28 30 31
30 31 29 29 29 29 30 32 35 37 37 35 33 32 31 28 25 27 28 26 28 28 29 31 37 40 42 40 38 35 29 28 25 25 28 30 29 27 25 25 26 28 29
26 25 24 24 26 28 31 34 36 33 32 33 31 29 27 26 25 24 25 26 28 31 31 35 39 42 40 36 34 30 28 24 22 28 24 28 28 28 27 27 28 29 29
22 19 22 24 27 30 31 32 31 30 32 30 28 27 25 24 25 27 25 27 34 35 35 37 39 38 35 33 30 29 26 21 26 26 27 26 27 26 25 26 26 27 28
17 19 23 27 29 30 29 28 28 27 23 22 24 24 25 23 23 25 28 32 34 34 34 35 36 33 31 29 28 26 24 23 24 28 27 25 24 24 24 26 27 27 27
Wind_Direction
245 247 247 259 257 273 282 295 306 304 301 290 263 252 245 247 257 265 270 268 275 287 286 285 293 295 295 292 292 294 298 303 301 297 295 292 288 285 282 278 277 276 270
248 252 245 243 258 261 273 289 292 290 285 281 280 274 271 272 272 273 273 273 271 273 273 277 283 289 294 296 296 298 302 302 297 294 292 290 288 288 286 282 276 272 272
233 234 244 237 244 252 266 284 286 295 284 278 276 279 281 281 280 281 280 280 282 280 278 282 286 289 291 293 294 293 294 293 292 292 292 289 285 283 282 281 282 284 282
285 247 234 231 240 251 259 283 291 296 301 286 292 291 293 283 278 282 285 288 288 284 283 285 291 294 295 295 294 295 294 290 287 285 284 283 283 280 279 279 280 278 280
290 264 236 237 225 252 251 262 283 292 293 298 300 300 306 322 310 282 280 284 284 284 285 285 288 292 294 296 295 295 294 293 292 290 289 287 283 280 277 275 276 278 278
354 20 36 235 234 276 252 244 251 285 288 297 300 300 303 311 315 308 296 287 287 285 282 283 287 292 294 295 295 294 292 292 292 290 289 288 287 283 281 279 278 276 275
15 16 26 35 8 345 256 245 235 282 301 301 299 301 304 309 307 303 299 299 299 298 300 300 299 299 299 299 298 295 294 291 292 293 291 289 286 285 284 283 282 280 278
358 350 6 353 325 310 299 283 287 295 307 310 305 301 304 307 304 303 304 301 302 303 303 302 303 303 303 302 302 301 300 298 295 293 289 286 284 280 279 280 282 284 283
321 324 289 321 323 287 271 280 297 306 306 305 302 301 301 300 302 305 307 306 304 302 301 300 300 300 298 297 297 300 300 300 298 293 288 286 284 280 277 277 278 279 280
304 314 302 298 289 288 292 288 295 302 302 302 303 301 300 301 303 303 303 307 307 305 305 304 304 302 301 300 298 298 299 298 296 292 291 292 289 285 284 281 279 280 279
299 296 293 292 292 285 291 294 303 306 307 306 306 307 308 309 310 310 310 306 303 302 301 300 298 299 300 300 298 295 295 296 296 295 295 294 292 292 291 289 288 287 284
301 295 287 286 285 289 297 304 304 306 305 305 303 304 302 300 301 302 303 301 300 300 298 297 296 296 296 296 296 296 297 297 297 297 297 297 297 297 297 294 291 288 284
290 287 285 281 283 298 302 304 306 305 305 306 308 307 306 305 303 303 301 299 299 298 297 298 298 299 300 298 297 300 301 302 303 303 302 301 301 299 297 297 294 292 289
283 284 288 292 299 300 302 306 305 304 303 304 305 303 303 304 303 301 301 301 302 300 299 300 299 301 301 299 300 301 302 303 303 303 302 303 303 302 301 301 299 297 293
279 281 290 297 299 301 304 305 306 308 306 304 304 305 305 305 305 304 302 301 301 301 301 301 302 306 306 305 305 305 305 304 304 304 304 306 307 305 306 305 298 292 289
287 295 300 295 295 304 309 310 306 303 304 304 304 304 303 303 306 304 301 304 302 302 306 304 305 307 308 307 307 306 306 306 308 309 309 310 310 308 305 299 295 297 294
293 293 291 294 299 300 303 303 300 303 307 308 308 306 306 300 305 305 304 304 308 309 309 311 311 310 308 307 308 308 310 313 314 311 311 313 312 307 302 299 292 298 305
286 283 292 294 297 300 300 301 304 309 309 308 308 308 308 308 308 308 310 312 310 310 313 310 309 310 309 309 309 309 309 311 312 310 311 316 313 308 302 301 301 299 300
286 296 298 298 298 300 302 304 307 308 308 305 306 307 307 307 309 310 311 312 314 313 312 310 310 311 311 310 309 310 310 310 309 310 314 318 314 302 301 300 299 307 312
289 292 293 296 300 300 301 305 305 306 307 305 306 307 308 309 310 314 315 316 315 313 313 313 314 314 315 315 314 312 310 307 305 309 316 317 316 310 302 303 305 306 308
294 291 292 297 297 299 304 304 303 304 306 307 310 312 312 312 313 314 315 313 313 314 314 314 316 318 317 317 315 313 310 312 309 311 316 319 322 316 306 302 304 309 306
290 293 293 295 299 302 302 305 308 310 310 313 315 316 316 316 316 311 311 314 315 313 312 317 321 321 321 319 317 319 318 312 313 310 312 319 321 323 318 310 310 310 312
290 292 297 298 299 303 307 310 311 313 318 319 320 320 319 319 318 318 317 314 316 315 317 319 322 324 322 321 321 320 318 317 314 317 316 317 320 322 320 317 314 313 314
291 291 293 298 306 307 310 313 315 320 322 324 323 322 321 322 321 318 316 312 316 314 313 316 321 323 323 323 323 323 323 321 316 320 315 321 320 319 319 318 316 316 316
286 291 298 304 308 311 314 316 318 322 324 327 326 325 323 319 320 318 312 313 319 317 315 318 319 321 324 327 328 327 327 320 323 325 322 323 322 322 323 324 324 323 320
293 300 306 309 310 314 314 314 314 318 320 321 322 321 321 325 329 330 325 320 320 321 320 319 321 323 328 331 331 329 329 326 322 322 325 327 329 332 334 333 332 332 328